This demonstration page uses our WeatherBlox Daily Observations layout. Learn more.

Left ArrowRight Arrow

44.8408, -93.29828

Hourly Observations for July 14, 2022

Temp ( °F °C ) Dew Point ( °F °C ) Humidity (%) Winds ( mph kmh ) Pressure ( in mb ) Visibility ( mi km ) Precip ( " mm )
12:53 am 00:53 Clear 67 19.4 58 14.4 73 73 ENE 6 9 30.09 1019 10 16 0.00 0.00
1:53 am 01:53 Clear 67 19.4 57 13.9 71 71 ENE 6 9 30.09 1019 10 16 0.00 0.00
2:53 am 02:53 Clear 65 18.3 58 14.4 78 78 E 3 6 30.08 1019 10 16 0.00 0.00
3:53 am 03:53 Clear 64 17.8 58 14.4 81 81 SE 3 6 30.09 1019 10 16 0.00 0.00
4:53 am 04:53 Clear 63 17.2 57 13.9 81 81 E 6 9 30.10 1019 10 16 0.00 0.00
5:53 am 05:53 Mostly Sunny 63 17.2 58 14.4 84 84 ESE 8 13 30.10 1019 10 16 0.00 0.00
6:53 am 06:53 Mostly Sunny 64 17.8 58 14.4 81 81 ESE 7 11 30.11 1020 10 16 0.00 0.00
7:53 am 07:53 Mostly Sunny 66 18.9 58 14.4 75 75 SE 3 6 30.12 1020 10 16 0.00 0.00
8:53 am 08:53 Mostly Sunny 71 21.7 59 15 66 66 SSE 7 11 30.12 1020 10 16 0.00 0.00
9:53 am 09:53 Partly Cloudy 74 23.3 60 15.6 62 62 ESE 8 13 30.10 1019 10 16 0.00 0.00
10:53 am 10:53 Partly Cloudy 77 25 61 16.1 58 58 SE 6 9 30.09 1019 10 16 0.00 0.00
11:53 am 11:53 Partly Cloudy 79 26.1 62 16.7 56 56 SSE 8 13 30.07 1018 10 16 0.00 0.00
12:53 pm 12:53 Partly Cloudy 82 27.8 60 15.6 47 47 SE 9 15 30.05 1018 10 16 0.00 0.00
1:53 pm 13:53 Partly Cloudy 84 28.9 62 16.7 48 48 SSE 13 20 30.04 1017 10 16 0.00 0.00
2:53 pm 14:53 Partly Cloudy 85 29.4 63 17.2 48 48 SSE 10 17 30.01 1016 10 16 0.00 0.00
3:53 pm 15:53 Mostly Cloudy 84 28.9 64 17.8 51 51 SE 15 24 30.00 1016 10 16 0.00 0.00
4:53 pm 16:53 Mostly Cloudy 86 30 65 18.3 49 49 SE 15 24 29.99 1016 10 16 0.00 0.00
5:53 pm 17:53 Mostly Cloudy 84 28.9 65 18.3 53 53 SE 15 24 29.99 1016 10 16 0.00 0.00
6:53 pm 18:53 Mostly Cloudy 82 27.8 66 18.9 58 58 SE 16 26 29.98 1015 10 16 0.00 0.00
7:53 pm 19:53 Mostly Cloudy 81 27.2 66 18.9 61 61 SE 14 22 29.98 1015 10 16 0.00 0.00
8:53 pm 20:53 Cloudy 80 26.7 66 18.9 62 62 SE 12 19 29.98 1015 10 16 0.00 0.00
9:53 pm 21:53 Cloudy 79 26.1 66 18.9 65 65 E 12 19 30.01 1016 10 16 0.00 0.00
10:53 pm 22:53 Mostly Cloudy 78 25.6 66 18.9 67 67 ESE 13 20 30.00 1016 10 16 0.00 0.00
11:53 pm 23:53 Partly Cloudy 77 25 66 18.9 69 69 SE 10 17 29.98 1015 10 16 0.00 0.00

Powered by AerisWeather